Flag for Germany Weather past 2 weeks in Halle, Saxony-Anhalt, Germany

Now
39 °F

Passing clouds.


Feels Like: 29 °F
Forecast: 36 / 45 °F
Wind: 20 mph from West

Location: Leipzig-Schkeuditz

Current Time: Mar 4, 2015 at 10:27:54 AM

Latest Report: Mar 4, 2015 at 9:50 AM


Visibility: N/A

Pressure: 30.15 "Hg

Humidity: 81%

Dew point: 34 °F

Location of HalleLocation

Historic Weather in Halle — Graph

°F

Halle temperature yesterday

Maximum temperature yesterday: 46 °F (at 3:20 PM)
Minimum temperature yesterday: 34 °F (at 4:20 AM)
Average temperature yesterday: 40 °F

Past Weeks' High & Low Weather Summary

 TemperatureHumidityPressure
High52 °F (Feb 20, 2:20 PM)100% (Feb 17, 9:20 AM)30.74 "Hg (Feb 17, 9:20 AM)
Low27 °F (Feb 20, 2:50 AM)37% (Feb 26, 3:20 PM)29.42 "Hg (Feb 21, 11:50 AM)
Average38 °F80%29.95 "Hg
* Reported Feb 17 9:20 AM — Mar 4 9:20 AM, Halle, Weather by CustomWeather, © 2015

Note: Actual official high and low records may vary slightly from our data, if they occured in-between our weather recording intervals... More about our weather records

Advertising

Halle weather history for previous 24 hours

 ConditionsComfort  
Time TempWeatherWind HumidityBarometerVisibility
9:20 AM
Wed, Mar 4
37 °FPassing clouds.20 mph87%30.15 "HgN/A
8:50 AM37 °FPassing clouds.16 mph87%30.15 "HgN/A
8:20 AM34 °FPassing clouds.15 mph100%30.12 "HgN/A
7:50 AM34 °FSunny.14 mph93%30.12 "Hg10 mi
7:20 AM34 °FPassing clouds.14 mph93%30.12 "HgN/A
6:50 AM32 °FSunny.13 mph93%30.09 "Hg10 mi
6:20 AM34 °FClear.20 mph93%30.09 "Hg10 mi
5:50 AM34 °FClear.15 mph93%30.09 "Hg10 mi
5:20 AM34 °FClear.15 mph93%30.07 "Hg10 mi
4:50 AM36 °FClear.12 mph93%30.07 "Hg10 mi
4:20 AM34 °FClear.15 mph100%30.04 "Hg10 mi
3:50 AM34 °FClear.14 mph93%30.04 "Hg10 mi
3:20 AM34 °FClear.12 mph93%30.04 "Hg10 mi
2:50 AM34 °FClear.13 mph93%30.01 "Hg10 mi
2:20 AM34 °FClear.10 mph100%30.01 "Hg10 mi
1:50 AM36 °FClear.9 mph100%30.01 "Hg10 mi
1:20 AM34 °FPassing clouds.9 mph100%30.01 "HgN/A
12:50 AM36 °FPartly cloudy.9 mph100%30.01 "HgN/A
12:20 AM37 °FLight rain. Passing clouds.12 mph93%30.01 "HgN/A
11:50 PM
Tue, Mar 3
37 °FLight rain. Partly cloudy.9 mph93%29.98 "HgN/A
11:20 PM37 °FLight rain. Partly cloudy.15 mph93%30.01 "HgN/A
10:20 PM37 °FLight rain. Partly cloudy.22 mph93%29.95 "HgN/A
9:50 PM39 °FStrong thunderstorms. Passing clouds.21 mph93%29.95 "HgN/A
9:20 PM45 °FPartly cloudy.13 mph61%29.92 "HgN/A
8:50 PM45 °FPartly cloudy.16 mph57%29.92 "HgN/A
8:20 PM45 °FClear.16 mph57%29.92 "Hg10 mi
7:50 PM45 °FClear.15 mph57%29.92 "Hg10 mi
7:20 PM45 °FClear.14 mph57%29.95 "Hg10 mi
6:50 PM45 °FLight rain. Passing clouds.23 mph57%29.95 "HgN/A
6:20 PM45 °FClear.15 mph53%29.95 "Hg10 mi
5:50 PM45 °FSunny.14 mph53%29.95 "Hg10 mi
5:20 PM45 °FSunny.13 mph53%29.98 "Hg10 mi
4:50 PM46 °FPartly sunny.9 mph50%29.98 "HgN/A
4:20 PM46 °FPartly sunny.14 mph50%30.01 "HgN/A
3:50 PM46 °FBroken clouds.15 mph50%30.01 "HgN/A
3:20 PM46 °FScattered clouds.16 mph53%30.04 "HgN/A
2:50 PM45 °FPartly sunny.14 mph57%30.04 "HgN/A
2:20 PM45 °FPartly sunny.20 mph57%30.04 "HgN/A
1:50 PM45 °FPartly sunny.24 mph57%30.07 "HgN/A
1:20 PM45 °FPartly sunny.23 mph61%30.07 "HgN/A
12:50 PM45 °FPartly sunny.21 mph66%30.07 "HgN/A
12:20 PM43 °FPartly sunny.21 mph66%30.07 "HgN/A
11:50 AM43 °FPartly sunny.22 mph66%30.07 "HgN/A
11:20 AM43 °FPartly sunny.22 mph66%30.07 "HgN/A
10:50 AM41 °FPartly sunny.21 mph70%30.07 "HgN/A
10:20 AM41 °FScattered clouds.21 mph70%30.07 "HgN/A
Weather by CustomWeather, © 2015

See weather overviewHow to use our weather pages